Wind_Speed
55 57 59 62 64 64 65 64 66 66 63 62 62 61 58 54 55 50 47 48 43 43 41 35 41 29 35 34 33 31 31 28 28 17 21 16 19 20 25 24 25 22 19
62 63 65 67 68 70 71 71 69 70 70 66 64 65 63 59 58 57 55 54 53 54 49 43 49 32 30 26 27 28 32 31 29 21 19 19 22 26 30 29 28 25 22
67 67 69 70 71 71 70 69 68 66 67 68 65 63 67 63 58 62 61 63 64 65 65 57 50 36 47 47 29 31 33 29 27 25 24 25 28 32 30 30 29 28 25
69 71 72 73 74 72 68 66 65 63 63 63 63 61 61 67 61 63 67 73 74 73 65 67 65 59 57 56 54 42 35 30 29 25 30 31 31 34 33 34 31 32 31
74 74 74 75 74 69 65 62 60 57 59 58 61 59 59 62 68 63 71 79 80 77 78 69 70 61 63 68 60 49 38 29 33 31 29 33 35 33 37 35 37 37 36
77 77 76 74 70 65 60 55 53 52 49 53 58 59 58 62 65 65 73 83 82 78 78 76 68 57 61 67 60 59 54 44 39 35 32 33 32 35 37 35 37 38 37
80 78 75 69 66 59 53 47 46 44 42 43 48 53 56 60 61 66 69 77 78 74 78 77 71 72 68 64 64 63 62 50 44 38 34 34 29 31 31 33 29 29 30
82 80 73 67 60 55 46 42 39 36 35 36 40 47 54 57 60 64 67 72 79 81 79 78 78 76 76 74 72 68 56 55 50 46 46 40 38 32 30 29 30 33 32
81 76 68 59 53 48 40 35 32 27 24 27 31 37 44 49 54 60 68 71 79 84 80 84 83 79 77 73 66 69 60 57 63 59 55 47 43 43 37 36 36 40 42
78 72 58 47 47 42 34 25 26 17 14 19 25 29 34 42 50 56 65 70 74 82 82 80 82 82 76 73 73 67 56 62 71 64 68 57 60 60 45 42 45 50 52
77 65 48 42 43 37 26 21 20 10 12 24 21 18 25 35 42 50 56 66 72 78 87 87 88 87 83 81 79 78 72 64 66 65 70 62 62 58 61 60 61 59 58
68 54 44 38 38 33 21 22 10 15 11 9 9 12 15 21 28 34 45 56 65 74 79 86 85 90 92 87 86 84 83 72 70 65 68 63 60 56 58 60 60 63 64
59 49 40 37 35 27 26 20 16 20 14 6 5 5 3 2 10 16 27 38 44 59 71 78 82 86 85 88 84 84 85 82 74 69 77 76 75 78 70 67 62 64 67
56 46 40 38 34 25 31 21 22 20 14 7 9 8 6 15 18 10 21 19 31 40 48 62 73 75 80 81 85 86 88 86 84 83 78 75 82 77 74 64 65 64 65
54 47 43 31 26 26 36 28 28 26 22 13 13 13 13 13 28 21 22 24 20 25 31 38 50 62 69 76 78 81 81 85 85 82 80 72 71 69 71 70 70 68 67
49 40 22 18 27 34 38 32 31 29 27 19 23 25 24 17 25 23 27 25 24 24 24 27 31 34 46 57 65 69 77 79 83 89 87 84 81 77 78 77 77 79 85
41 27 16 23 34 40 41 34 34 30 29 22 23 22 26 31 41 40 33 28 32 26 26 26 26 26 27 30 42 56 68 77 81 84 81 80 83 87 88 85 86 86 86
34 21 20 26 36 42 48 40 40 37 34 31 30 32 31 38 48 48 41 42 42 37 38 35 28 26 27 28 38 44 44 48 52 57 63 67 70 73 75 77 80 83 84
30 23 24 30 38 41 49 47 45 43 41 37 38 44 39 39 41 45 44 44 40 45 43 43 37 33 33 38 42 42 45 53 58 60 61 66 70 76 82 81 82 82 83
22 21 25 30 39 40 48 52 50 51 49 44 41 47 49 46 51 53 45 49 51 45 46 52 49 47 43 42 45 49 50 47 61 62 65 67 74 73 79 85 91 92 87
13 11 21 28 37 42 44 53 56 54 53 51 52 50 56 55 49 55 51 60 55 60 60 55 57 56 55 57 55 52 53 51 53 56 73 78 75 72 78 78 81 81 84
14 15 18 20 28 39 48 52 59 60 59 58 58 58 64 64 60 60 59 61 62 60 61 62 62 62 63 62 63 61 62 62 65 64 67 65 68 73 75 76 76 81 80
21 21 27 32 29 31 39 47 57 58 62 62 61 64 67 70 71 70 72 71 73 74 72 72 73 73 71 70 72 72 72 72 72 73 74 75 77 76 80 81 81 83 83
18 19 22 34 35 34 37 41 47 50 59 63 63 64 66 72 74 74 72 72 74 77 78 78 77 80 81 84 87 86 88 88 87 87 84 86 88 90 92 93 93 93 91
18 18 17 18 24 24 32 40 39 42 47 53 59 64 68 70 73 76 76 81 85 86 90 96 99 99 98 97 100 100 102 103 105 105 105 104 103 100 99 100 101 104 105
23 29 33 22 19 19 26 37 42 45 49 51 54 58 62 68 72 78 85 87 88 91 93 94 94 96 99 102 105 109 111 113 113 114 115 116 117 116 115 116 116 115 115
Wind_Direction
297 295 293 291 289 287 282 276 273 270 265 256 254 251 248 240 232 232 231 226 212 212 212 200 241 238 232 231 232 235 236 238 239 232 242 240 233 221 214 202 206 211 223
296 297 293 291 287 285 282 278 273 268 268 263 253 252 249 243 234 228 226 223 216 214 205 202 211 206 211 227 232 235 233 232 240 230 238 226 220 217 217 207 212 221 231
299 297 295 294 292 290 286 281 276 270 264 263 259 251 249 246 238 227 224 221 213 215 219 212 212 221 215 227 237 251 237 221 231 232 235 223 221 223 223 219 221 230 240
299 299 301 300 297 295 289 284 275 270 266 261 258 252 244 243 238 230 223 221 216 219 216 217 215 221 212 218 226 234 236 234 224 218 225 234 224 226 230 234 232 236 244
301 303 304 303 299 296 292 285 279 272 265 260 253 248 243 238 237 230 223 222 224 221 221 217 223 233 219 224 236 220 223 238 241 228 240 237 237 230 235 237 241 249 258
303 306 306 303 300 296 293 288 283 275 266 258 251 246 240 236 234 230 224 222 225 226 224 227 231 221 218 225 229 222 223 229 233 241 238 243 239 237 238 243 244 248 256
305 306 307 305 302 298 296 292 285 278 269 257 248 243 236 232 231 231 228 223 222 225 227 227 222 216 224 233 236 230 227 232 228 234 239 241 240 242 246 244 249 252 266
307 308 308 306 301 298 296 295 286 275 269 261 251 239 236 230 228 226 225 223 221 222 224 223 219 223 232 241 244 233 238 235 227 226 235 231 232 237 246 247 255 262 267
307 306 306 304 295 294 297 287 279 272 266 262 254 242 236 230 226 224 223 223 221 221 222 221 221 226 235 239 232 239 246 236 230 228 230 233 238 239 247 253 264 271 272
300 303 305 296 289 291 292 270 265 266 271 262 251 240 231 225 222 226 223 223 221 221 223 221 223 232 233 236 238 242 245 232 228 235 234 243 244 249 247 250 262 272 273
302 305 305 293 288 288 280 241 255 217 251 265 251 242 246 235 228 229 228 225 224 223 223 222 223 227 231 235 237 238 239 239 238 240 240 247 245 248 250 257 261 266 266
302 305 302 293 287 282 242 228 207 220 207 260 245 241 247 245 242 241 237 231 229 227 224 225 226 227 230 232 236 240 239 243 239 234 237 238 246 247 254 258 262 259 259
304 304 298 288 280 267 220 210 202 208 177 208 177 166 171 188 242 244 243 243 237 234 228 227 228 229 230 232 235 236 240 242 238 240 242 243 251 252 256 259 259 257 258
304 304 295 289 274 252 199 190 194 198 158 179 217 204 187 113 91 280 264 253 242 240 238 233 232 235 234 232 234 235 237 243 245 244 248 252 249 253 253 256 257 256 254
302 304 300 286 249 232 198 193 187 183 158 191 206 205 209 168 161 202 231 253 245 248 246 243 240 237 236 236 236 237 241 241 243 243 244 246 246 246 247 247 245 250 256
296 305 282 226 213 213 200 192 188 186 183 186 198 199 200 205 242 243 242 244 247 243 249 245 243 241 243 242 242 242 240 241 240 244 246 247 249 248 251 251 248 252 261
292 292 229 208 205 213 196 191 192 187 180 199 194 214 210 194 199 209 228 238 244 244 238 244 253 249 238 235 239 245 248 246 249 247 247 248 252 253 255 256 256 259 261
286 256 223 211 209 215 202 202 196 189 188 195 212 210 217 203 201 214 246 247 248 247 252 251 239 249 251 245 236 240 248 250 247 245 244 247 249 249 252 253 254 256 258
276 238 227 218 214 220 211 209 204 199 198 198 200 205 215 213 222 233 242 239 244 252 251 248 248 246 248 249 245 244 249 249 247 245 245 241 240 240 241 244 246 249 249
265 239 230 224 222 224 219 222 219 212 213 213 222 214 215 222 223 223 230 238 241 245 253 252 248 248 250 252 251 254 256 252 239 240 243 245 242 240 240 241 242 244 246
236 247 231 233 228 227 230 226 226 227 235 234 228 231 223 228 234 236 243 243 248 252 251 256 257 261 260 256 256 251 251 251 254 251 245 243 247 251 248 251 251 251 251
212 232 240 243 244 241 237 234 230 232 235 241 242 237 232 236 241 243 249 250 250 250 251 253 253 252 255 256 251 248 247 247 250 252 252 253 251 252 254 257 259 257 256
241 267 263 237 231 240 243 244 238 236 240 243 245 246 248 245 248 251 252 255 259 260 259 257 256 259 260 260 258 261 259 256 255 252 252 254 253 253 255 255 258 260 259
256 280 257 238 237 239 239 241 243 244 245 246 250 253 253 252 253 256 258 261 262 261 262 262 262 263 264 263 262 263 263 261 262 261 259 257 256 256 259 259 260 262 259
246 264 281 245 239 242 243 241 245 248 248 248 248 250 254 256 257 258 259 259 261 263 263 261 260 262 263 265 265 265 266 267 268 268 269 266 261 262 261 261 262 262 263
258 270 284 279 274 269 253 246 244 247 249 250 252 252 253 253 255 257 257 258 260 262 263 264 264 265 266 267 267 267 268 269 269 269 270 269 269 269 268 267 267 265 263
Height
10853 10847 10842 10836 10830 10825 10822 10819 10816 10814 10815 10818 10820 10822 10826 10833 10840 10845 10849 10853 10857 10859 10862 10868 10885 10880 10884 10888 10891 10895 10898 10902 10903 10908 10911 10913 10916 10919 10923 10926 10929 10930 10932
10837 10832 10826 10819 10812 10805 10799 10795 10795 10793 10791 10793 10799 10804 10807 10814 10821 10828 10835 10838 10844 10844 10845 10850 10854 10862 10868 10878 10883 10884 10888 10894 10900 10902 10905 10908 10912 10914 10916 10921 10924 10926 10927
10819 10813 10805 10797 10789 10783 10776 10771 10767 10768 10768 10769 10774 10782 10788 10794 10804 10811 10818 10821 10825 10826 10832 10837 10840 10846 10853 10860 10874 10874 10880 10886 10893 10898 10898 10903 10907 10911 10912 10916 10919 10922 10923
10798 10791 10784 10774 10764 10758 10751 10746 10741 10741 10742 10748 10751 10758 10765 10772 10782 10792 10799 10804 10806 10812 10816 10823 10830 10836 10844 10851 10858 10863 10877 10881 10885 10889 10893 10896 10899 10904 10906 10908 10912 10914 10915
10777 10772 10763 10751 10742 10735 10729 10723 10719 10719 10719 10723 10727 10734 10743 10751 10760 10770 10779 10784 10791 10799 10805 10813 10820 10828 10837 10840 10847 10856 10866 10874 10880 10881 10885 10887 10892 10896 10898 10902 10904 10907 10910
10760 10752 10742 10732 10722 10714 10708 10701 10699 10698 10700 10700 10704 10712 10722 10730 10739 10748 10756 10763 10773 10785 10793 10800 10807 10814 10820 10829 10838 10844 10854 10861 10869 10873 10876 10880 10884 10887 10890 10892 10894 10898 10902
10738 10731 10722 10712 10701 10694 10689 10685 10683 10680 10680 10682 10686 10692 10699 10709 10719 10730 10740 10753 10765 10775 10782 10789 10796 10803 10810 10818 10825 10836 10844 10853 10859 10862 10868 10871 10876 10878 10882 10884 10886 10888 10892
10715 10708 10701 10692 10684 10679 10676 10671 10670 10667 10667 10668 10672 10675 10682 10691 10700 10713 10724 10737 10746 10754 10764 10775 10784 10792 10799 10805 10815 10824 10833 10842 10847 10850 10856 10862 10865 10868 10869 10873 10874 10877 10880
10697 10690 10684 10676 10669 10665 10663 10660 10658 10659 10658 10660 10661 10665 10670 10679 10689 10697 10706 10715 10727 10739 10753 10764 10772 10781 10787 10796 10803 10808 10818 10825 10831 10835 10842 10848 10851 10856 10858 10860 10862 10866 10869
10677 10673 10669 10661 10655 10652 10653 10651 10650 10655 10656 10655 10656 10659 10663 10668 10675 10682 10690 10701 10715 10728 10738 10747 10762 10768 10776 10782 10789 10797 10803 10809 10818 10823 10829 10835 10839 10846 10847 10847 10848 10853 10856
10659 10656 10653 10648 10643 10642 10644 10643 10644 10648 10651 10651 10652 10655 10658 10662 10667 10673 10682 10691 10699 10708 10720 10735 10743 10752 10762 10766 10775 10782 10786 10797 10806 10813 10819 10821 10825 10829 10834 10837 10837 10841 10841
10643 10640 10637 10635 10633 10632 10635 10636 10639 10640 10642 10646 10649 10652 10655 10658 10661 10665 10671 10679 10685 10694 10704 10717 10726 10736 10744 10753 10759 10765 10774 10783 10791 10797 10802 10806 10811 10812 10816 10821 10824 10826 10828
10629 10625 10621 10621 10622 10623 10628 10630 10634 10636 10636 10642 10646 10649 10652 10655 10659 10661 10664 10669 10675 10681 10691 10701 10710 10716 10726 10734 10742 10749 10754 10764 10775 10780 10786 10790 10794 10797 10800 10803 10805 10808 10811
10614 10610 10606 10607 10609 10614 10620 10624 10628 10633 10634 10640 10644 10647 10650 10657 10659 10655 10659 10663 10666 10671 10676 10684 10693 10701 10708 10716 10723 10733 10740 10744 10753 10762 10768 10774 10777 10780 10784 10786 10784 10789 10791
10599 10597 10594 10595 10597 10604 10612 10617 10622 10627 10630 10638 10643 10644 10648 10655 10659 10660 10656 10657 10660 10663 10667 10671 10677 10684 10693 10703 10709 10717 10724 10730 10735 10743 10749 10753 10757 10762 10766 10768 10769 10770 10772
10590 10589 10585 10587 10590 10597 10605 10612 10617 10622 10627 10632 10637 10641 10645 10648 10649 10651 10651 10654 10657 10660 10662 10664 10669 10674 10680 10687 10693 10700 10706 10711 10716 10722 10728 10732 10737 10742 10748 10751 10752 10753 10755
10581 10582 10580 10583 10587 10591 10601 10607 10613 10618 10621 10627 10631 10635 10641 10644 10647 10648 10645 10649 10652 10654 10655 10658 10659 10663 10669 10675 10680 10679 10686 10695 10700 10704 10707 10712 10714 10719 10725 10728 10730 10731 10733
10575 10574 10575 10578 10583 10587 10595 10600 10605 10608 10613 10619 10624 10628 10632 10636 10637 10638 10637 10639 10641 10644 10646 10648 10649 10652 10656 10662 10664 10666 10669 10674 10679 10682 10685 10689 10695 10698 10702 10704 10706 10707 10709
10567 10567 10569 10573 10577 10581 10587 10592 10598 10602 10605 10609 10612 10615 10621 10624 10627 10628 10628 10628 10631 10633 10635 10637 10639 10641 10645 10649 10651 10652 10654 10654 10656 10659 10663 10665 10670 10674 10678 10681 10684 10686 10687
10560 10560 10563 10566 10570 10573 10579 10582 10587 10592 10595 10598 10602 10606 10607 10609 10612 10614 10614 10615 10618 10619 10620 10623 10626 10627 10630 10633 10635 10636 10636 10638 10639 10640 10641 10643 10646 10648 10651 10654 10657 10658 10659
10554 10554 10556 10559 10562 10565 10570 10574 10576 10580 10583 10587 10589 10590 10593 10596 10597 10600 10600 10603 10604 10606 10608 10610 10612 10613 10615 10617 10619 10620 10620 10621 10622 10623 10624 10624 10624 10626 10629 10630 10630 10631 10630
10548 10549 10549 10550 10553 10555 10558 10561 10565 10568 10571 10572 10573 10576 10578 10579 10581 10583 10585 10586 10587 10588 10590 10591 10593 10594 10595 10596 10599 10601 10602 10604 10605 10605 10605 10603 10604 10605 10605 10605 10605 10605 10606
10540 10541 10541 10541 10540 10542 10544 10547 10552 10556 10557 10559 10561 10562 10563 10564 10565 10565 10566 10567 10567 10568 10571 10572 10574 10574 10574 10575 10577 10578 10579 10580 10581 10582 10582 10582 10581 10581 10582 10583 10583 10581 10581
10532 10531 10530 10530 10530 10530 10532 10535 10539 10542 10545 10546 10545 10545 10546 10547 10547 10547 10547 10547 10546 10547 10547 10547 10547 10547 10548 10548 10550 10551 10551 10551 10551 10552 10553 10553 10553 10552 10551 10551 10551 10550 10550
10525 10524 10525 10523 10522 10521 10522 10524 10524 10525 10527 10529 10530 10530 10530 10528 10527 10526 10525 10525 10524 10522 10521 10522 10523 10522 10521 10520 10521 10521 10521 10520 10520 10520 10520 10522 10522 10520 10519 10519 10518 10518 10517
10516 10516 10515 10513 10512 10511 10511 10510 10509 10509 10509 10509 10509 10509 10508 10507 10507 10506 10505 10505 10503 10500 10497 10495 10494 10493 10492 10491 10490 10489 10488 10488 10487 10485 10483 10482 10481 10480 10480 10480 10480 10480 10480